Regional Weather Roundup
Issued by NWS Wakefield, VA

Home | Current Version | Previous Version | Text Only | Print | Product List | Glossary Off
Versions: 1 2 3 4 5 6 7 8 9 10 11 12 13 14 15 16 17 18 19 20 21 22 23 24 25 26 27 28 29 30 31 32 33 34 35 36 37 38 39 40 41 42 43 44 45 46 47 48 49 50

000
ASUS41 KAKQ 211910
RWRAKQ

REGIONAL WEATHER ROUNDUP
NATIONAL WEATHER SERVICE WAKEFIELD VA
300 PM EDT MON JUL 21 2014

Note: "fair" indicates few or no clouds below 12,000 feet with no
significant weather and/or obstructions to visibility. * = Denotes
station may not report precipitation (e.g., rain,snow,etc.),
thunder or fog.

VAZ042-051-052>054-056-212000-
NORTHERN VIRGINIA

CITY           SKY/WX    TMP DP  RH WIND       PRES   REMARKS
WASH NATIONAL  CLOUDY    85  64  49 E6        30.16F
DULLES         PTSUNNY   80  66  62 S6        30.16F
FORT BELVOIR   MOSUNNY   82  69  64 SE5       30.16F
QUANTICO       PTSUNNY   82  69  64 SE6       30.16F
FREDERICKSBRG* PTSUNNY   83  69  60 SE3       30.14S
STAFFORD*      CLOUDY    81  70  68 E9G16     30.19F
WARRENTON      CLOUDY    82  76  81 E6        30.15S
CULPEPER*      MOSUNNY  N/A N/A N/A CALM      30.16S
MANASSAS*      NOT AVBL
LEESBURG*      CLOUDY    81  72  74 NE7       30.17F
WINCHESTER     PTSUNNY   81  70  69 SE7       30.16F
$$

VAZ048-049-060>072-079>083-212000-
CENTRAL AND SOUTH CENTRAL VIRGINIA...AND NORTH CENTRAL NORTH CAROLINA

CITY           SKY/WX    TMP DP  RH WIND       PRES   REMARKS
RICHMOND       CLOUDY    79  72  79 E7        30.16F
CHESTERFIELD*  CLOUDY    79  64  61 E8        30.18S
HANOVER        CLOUDY    78  67  68 SE6       30.18R
TAPPAHANNOCK*  CLOUDY    80  66  62 E6        30.17S
CHARLOTTSVILLE LGT RAIN  80  70  71 E6        30.15F
ORANGE*        CLOUDY    79  68  69 CALM      30.17R
LOUISA*        PTSUNNY   81  70  69 SE6       30.15S
FARMVILLE*     CLOUDY    81  70  69 E5        30.13S
SOUTH HILL*    CLOUDY    81  77  89 CALM      30.20F
ROANOKE RAPIDS LGT RAIN  75  72  88 SE9G17    30.13S
RALEIGH        LGT RAIN  75  72  90 CALM      30.14R FOG
$$

VAZ088>098-212000-
SOUTHEAST VIRGINIA

CITY           SKY/WX    TMP DP  RH WIND       PRES   REMARKS
NORFOLK        CLOUDY    77  71  82 E7        30.17S
VIRGINIA BEACH PTSUNNY   77  70  79 E8        30.16S
NORFOLK NAVAL  CLOUDY    78  71  79 E9        30.18S
WEST POINT*    CLOUDY    81  69  67 SE6       30.18F
NEWPORT NEWS   CLOUDY    82  71  69 E9        30.16F
LANGLEY AFB    CLOUDY    79  72  79 E9        30.16F
FORT EUSTIS    CLOUDY    80  71  74 E8        30.15S
WILLIAMSBURG*  CLOUDY    82  72  69 SE7       30.17F
FRANKLIN*      CLOUDY    79  73  83 E3        30.15F
WAKEFIELD      CLOUDY    80  72  76 CALM      30.16F
$$

VAZ020-022-025-037-045-212000-
WESTERN AND SOUTHWEST VIRGINIA

CITY           SKY/WX    TMP DP  RH WIND       PRES   REMARKS
STAUNTON*      PTSUNNY   80  65  61 SE5       30.19S
HOT SPRINGS VA MOSUNNY   71  59  65 SE3       30.30S
LYNCHBURG      PTSUNNY   78  69  73 NE6       30.17F
DANVILLE       CLOUDY    81  69  67 N5        30.14S
MARTINSVILLE   CLOUDY    79  70  74 NW3       30.18F
ROANOKE        CLOUDY    78  67  68 CALM      30.18F
BLACKSBURG     PTSUNNY   79  72  78 E5        30.23S
DUBLIN*        PTSUNNY   82  67  60 E7        30.20S
MARION*        PTSUNNY   81  70  69 E6        30.22S
HILLSVILLE*    CLOUDY    71  67  88 S3        30.23R
RICHLANDS*     PTCLDY    83  65  53 SE3       30.19S
WISE*          PTSUNNY   82  63  51 CALM      30.20F
ABINGDON*      MOSUNNY   86  63  45 E3        30.16S
$$

MDZ021>025-VAZ099-100-212000-
SOUTHERN MARYLAND AND THE DELMARVA PENINSULA

CITY           SKY/WX    TMP DP  RH WIND       PRES   REMARKS
PATUXENT RIVER PTSUNNY   79  66  64 SE9       30.17F
BAY BRIDGE APT   N/A     81  64  57 N3        30.18S
LEONARDTOWN    SUNNY     79  64  61 E6        30.18F
DOVER          SUNNY     80  69  70 E9        30.17F
GEORGETOWN     PTSUNNY   79  65  62 E12G20    30.19F
EASTON         MOSUNNY   82  66  57 SE3       30.21S
CAMBRIDGE      MOSUNNY   82  63  51 E6        30.17F
SALISBURY      NOT AVBL
OCEAN CITY     CLOUDY    76  68  76 E9        30.19S
WALLOPS ISLAND CLOUDY    78  68  71 E9        30.19S
ACCOMACK*        N/A     79  66  65 E6        30.17F
$$

NCZ012>017-030>032-212000-
EASTERN NORTH CAROLINA

CITY           SKY/WX    TMP DP  RH WIND       PRES   REMARKS
ELIZABETH CITY LGT RAIN  78  71  79 E8        30.17R
AHOSKIE*       CLOUDY    75  70  85 SE8       30.16S
EDENTON*       LGT RAIN  76  73  93 E5        30.16S
CURRITUCK*     CLOUDY    80  68  65 E3        30.18R
KILL DEVIL HLS CLOUDY    78  71  81 SE8       30.16S
MANTEO         NOT AVBL
CAPE HATTERAS  CLOUDY    82  73  74 NE7       30.15S
GOLDSBORO      LGT RAIN  79  77  94 S8        30.11F
WASHINGTON     CLOUDY    74  72  92 NE5       30.16S
GREENVILLE     CLOUDY    75  72  88 E5        30.16F
NEW BERN       RAIN      78  72  81 CALM      30.16S
WILMINGTON     HVY RAIN  74  72  93 NE7       30.14R FOG
$$

VAZ048-212000-
ELSEWHERE

CITY           SKY/WX    TMP DP  RH WIND       PRES   REMARKS
HARRISBURG PA  CLOUDY    81  66  60 SE5       30.17F
BALTIMORE      CLOUDY    80  63  55 E6        30.17F
ANNAPOLIS      CLOUDY    78  66  66 SE5       30.18S
ANDREWS AFB    PTSUNNY   81  67  61 E10       30.17S
WILMINGTON DE  SUNNY     82  63  52 VRB5      30.17F
PHILADELPHIA   MOSUNNY   84  57  39 SE5       30.15F
WILDWOOD NJ*   MOSUNNY   77  61  57 SE10      30.20S
ATLANTIC CITY  SUNNY     78  63  59 SE12      30.17F
HENDERSON NC   CLOUDY    75  68  78 E6        30.16S
GREENSBORO     CLOUDY    76  72  87 CALM      30.15F
ROCKY MOUNT    CLOUDY    78  74  87 CALM      30.13F
FAYETTEVILLE   LGT RAIN  76  73  91 E7        30.12F
CHARLOTTE      LGT RAIN  73  69  87 N6        30.14F
$$

VAZ100-212000-
MARINE

STATION/POSITION TIME  TEMP    WIND        PRES    WAVE   SWELL
                       AIR SEA DIR/SP/G            HT/PER HT/PER
                 (UTC) (F)     (DEG/KT/KT) (MB)    (FT/S) (FT/S)
44066 TX TWR #4  1900   69 72   20/  8/ 10 1021.7F   4/ 6   3/ 6
CAPE MAY NJ      1900   73 75  120/  7/ 10 1022.1F
15NM E FENWICK I 1900   73 75              1022.2S   4/ 7
OCEAN-CITY-INLET 1900   75 70   80/  5/  8 1022.1R
WACHAPREAGUE VA  1900   75 78   50/  9/ 11 1021.8R
THOMAS POINT MD  1900   76 79  200/  2/  3 1022.3F
GOOSES REEF MD   1900   77     350/  2/  2 1022.4F
COVE POINT MD    1900   75     180/  7/  8 1021.8F
SOLOMONS ISLAND  1900      81                N/A
BISHOPS HEAD MD  1900   77 78  140/  4/  5 1021.6S
PINEY POINT MD   1900          160/  9/ 10   N/A
POTOMAC MD       1900   76     130/  6/  8 1021.2S
CAMBRIDGE MD     1900   79 80   40/  4/  6 1021.5F
LEWISETTA VA     1900   76 80  110/  9/  9 1021.5S
RAPPAHANNOCK LGT 1900           90/  3/  4 1022.2S
STINGRAY PT      1900   76      80/  4/  4 1020.9F
YORK RVR RNG VA  1900   76     140/  7/  8 1021.0F
YORKTOWN VA      1900   77 80  100/  6/  8 1021.3F
JAMESTOWN VA     1900   76     120/  4/  8   N/A
DOMINION TERM VA 1900   76      70/ 11/ 13 1021.7S
KIPTOPEKE VA     1900      79   90/  9/ 11   N/A
CHES BAY BRIDGE  1900   74 74   50/ 10/ 11 1021.1F
CAPE HENRY VA    1900   75      80/  9/ 10 1020.5F
WILLOUBY STN VA  1900           90/ 10/ 12 1020.8S
S CRANEY ISL VA  1900           50/  7/  9 1021.6R
CAPE HENRY BUOY  1900      76                N/A     3/ 7
1ST LANDING BUOY 1900   75      70/ 10/ 10 1021.3S
CAPE CHARLES BUO 1900      75                N/A     3/ 6
OFFSHORE WE BUOY 1900      76                N/A     3/ 8
64NM E OF VA BCH 1900   76 78   50/  4/  6 1021.3R   3/ 8   3/ 8
DUCK PIER NC     1900   77 76  120/  6/  7 1021.0R
44056 DUCK FRF   1900                        N/A     3/ 8
OREGON INLET NC  1900   76 77   60/  5/  7 1021.5F
HATTERAS NC      1900   80 81   80/  7/  9 1021.4S
DIAMOND SHLS NC  1900          VRB  8/ 10  1020.6S   3/ 8   3/ 8
CAPE LOOKOUT NC  1800   79     120/ 12/ 14 1020.2F
$$



USA.gov is the U.S. government's official web portal to all federal, state and local government web resources and services.